Location: Glens Falls
(43.3090°N, 73.6440°W)
Time: 11:34:00
(UTC-04:00)

Cosmos 1975 Rocket - Pass Details

Date: 24 February 2018
Orbit: 605 x 633 km, 82.5° (Epoch: 16 July)

Event Time Altitude Azimuth Distance (km) Brightness Sun altitude
Rises 18:49:37 0° 352° (N) 2,916 6.6 -13.9°
Reaches altitude 10° 18:51:51 10° 354° (N) 2,009 5.8 -14.3°
Maximum altitude 18:56:19 79° 80° (E) 646 3.0 -15.1°
Drops below altitude 10° 19:00:46 10° 169° (S) 2,006 5.5 -15.9°
Sets 19:03:00 0° 170° (S) 2,911 6.4 -16.3°
